DW5349 Weather Reports


time (UTC)temp
C
wind
direction
speed
KPH
gust
KPH
rain 1hr
cm
rain 24hr
cm
rain mn
cm
humidity
%
barometer
mb
20260505124414 21 165 0.0 0.0 0.00 0.00 0.00 65 1012.5
20260505123410 21 184 0.0 0.0 0.00 0.00 0.00 61 1012.2
20260505122409 20 177 0.0 0.0 0.00 0.00 0.00 53 1012.1
20260505025252 20 176 0.0 0.0 0.00 0.00 0.00 68 1013.6
20260505024242 20 225 0.0 0.0 0.00 0.00 0.00 68 1013.6
20260505023250 20 174 0.0 0.0 0.00 0.00 0.00 68 1013.6
20260505021109 20 196 0.0 0.0 0.00 0.00 0.00 66 1013.5
20260505020033 20 166 0.0 0.0 0.00 0.00 0.00 66 1013.4
20260505013816 21 203 0.0 0.0 0.00 0.00 0.00 64 1013.2
20260505012826 21 186 0.0 0.0 0.00 0.00 0.00 63 1013.4
20260505011818 21 172 0.0 0.0 0.00 0.00 0.00 62 1013.2
20260505010756 21 172 0.0 0.0 0.00 0.00 0.00 60 1013.2
20260505004654 22 180 0.0 0.0 0.00 0.00 0.00 57 1013.6
20260505003647 22 210 0.0 0.0 0.00 0.00 0.00 56 1013.4
20260505002621 22 215 0.0 0.0 0.00 0.00 0.00 56 1013.5
20260505001620 22 169 0.0 0.0 0.00 0.00 0.00 55 1013.5
20260505000636 23 215 0.0 0.0 0.00 0.00 0.00 53 1013.5
20260504235641 23 181 0.0 0.0 0.00 0.00 0.00 52 1013.4
20260504232405 24 232 0.0 0.0 0.00 0.00 0.00 48 1013.6
20260504231343 25 203 0.0 0.0 0.00 0.00 0.00 47 1013.9
20260504230306 25 250 0.0 0.0 0.00 0.00 0.00 47 1013.9
20260504225246 25 218 0.0 0.0 0.00 0.00 0.00 47 1013.9
20260504223052 25 162 0.0 0.0 0.00 0.00 0.00 45 1014.1
20260504222017 25 213 0.0 0.0 0.00 0.00 0.00 44 1014.1
20260504215908 25 232 0.0 0.0 0.00 0.00 0.00 42 1014.4